{"data":{"norad_id":85424,"epoch":"2026-05-12T09:20:38.511168Z","epoch_age_seconds":11343057,"freshness":"OLD","line1":"1 85424U          26132.38933462  .02751464  19596-5  13996-2 0  9999","line2":"2 85424  97.4738 243.3937 0456111 209.2444 148.2556 15.31473718  1188","mean_motion":15.31473718,"eccentricity":0.0456111,"inclination_deg":97.4738,"raan_deg":243.3937,"arg_perigee_deg":209.2444,"mean_anomaly_deg":148.2556,"bstar":0.0013996,"rev_number":118,"period_min":94.027078824476,"perigee_km":158.99902956374,"apogee_km":783.83019672848,"semimajor_km":6849.5516131461,"source":"CELESTRAK","updated_at":"2026-06-11T09:00:23.851034Z"}}